GW4140 Weather Reports


time (UTC)temp
C
wind
direction
speed
KPH
gust
KPH
rain 1hr
cm
rain 24hr
cm
rain mn
cm
humidity
%
barometer
mb
20260506150051 12 51 19.3 33.8 0.00 0.00 0.00 80 1015.2
20260506144549 11 43 27.4 41.8 0.00 0.00 0.00 80 1014.9
20260506143101 11 70 22.5 37.0 0.00 0.00 0.00 82 1015.1
20260506141550 11 63 16.1 29.0 0.00 0.00 0.00 82 1015.1
20260506140054 10 70 17.7 29.0 0.00 0.00 0.00 83 1015.3
20260506134556 10 86 12.9 27.4 0.00 0.00 0.00 83 1015.0
20260506133048 10 80 11.3 25.7 0.00 0.00 0.00 84 1015.1
20260506131551 10 67 16.1 25.7 0.00 0.00 0.00 85 1015.1
20260506130048 10 92 16.1 30.6 0.00 0.00 0.00 85 1014.6
20260506124542 10 70 14.5 27.4 0.00 0.00 0.00 85 1014.3
20260506123052 10 101 8.0 25.7 0.00 0.00 0.00 86 1014.4
20260506121547 10 76 12.9 20.9 0.00 0.00 0.00 87 1014.2
20260506114558 10 117 11.3 22.5 0.00 0.00 0.00 85 1013.5
20260506113053 10 67 16.1 24.1 0.00 0.00 0.00 85 1012.9
20260506111548 10 95 12.9 24.1 0.00 0.00 0.00 85 1012.8
20260506110055 10 89 12.9 24.1 0.00 0.00 0.00 86 1012.5
20260506104550 10 60 16.1 22.5 0.00 0.00 0.00 87 1012.3
20260506103049 10 94 14.5 25.7 0.00 0.00 0.00 87 1012.2
20260506101601 10 90 11.3 19.3 0.00 0.00 0.00 87 1012.0
20260506100048 10 79 11.3 19.3 0.00 0.00 0.00 87 1012.1
20260506094606 10 51 9.7 17.7 0.00 0.00 0.00 87 1011.9
20260506093049 10 66 12.9 17.7 0.00 0.00 0.00 86 1011.5
20260506091549 11 69 12.9 22.5 0.00 0.00 0.00 85 1011.4
20260506090047 11 60 9.7 17.7 0.00 0.00 0.00 85 1011.5
20260506084554 11 41 12.9 19.3 0.00 0.00 0.00 84 1011.4
20260506083048 11 58 11.3 17.7 0.00 0.00 0.00 84 1011.4
20260506081551 11 66 9.7 17.7 0.00 0.00 0.00 83 1011.3
20260506073048 12 96 9.7 17.7 0.00 0.00 0.00 81 1011.6
20260506071553 12 82 11.3 20.9 0.00 0.00 0.00 79 1011.5
20260506061548 14 60 8.0 17.7 0.00 0.00 0.00 75 1011.3
20260506044553 18 105 9.7 17.7 0.00 0.00 0.00 65 1010.2
20260506043049 18 117 6.4 17.7 0.00 0.00 0.00 64 1010.1
20260506041550 19 75 8.0 14.5 0.00 0.00 0.00 63 1009.9
20260506040100 19 62 8.0 14.5 0.00 0.00 0.00 63 1010.0
20260506034604 20 98 6.4 17.7 0.00 0.00 0.00 62 1010.0
20260506033047 20 102 8.0 14.5 0.00 0.00 0.00 61 1009.9
20260506031558 21 108 6.4 14.5 0.00 0.00 0.00 60 1010.0
20260506030048 21 74 8.0 12.9 0.00 0.00 0.00 58 1009.5
20260506024546 21 81 8.0 16.1 0.00 0.00 0.00 59 1009.3
20260506023047 22 96 4.8 11.3 0.00 0.00 0.00 61 1009.4
20260506021550 22 88 8.0 16.1 0.00 0.00 0.00 61 1009.2
20260506020045 23 82 4.8 8.0 0.00 0.00 0.00 59 1008.7
20260506014549 23 96 4.8 9.7 0.00 0.00 0.00 56 1008.6
20260506013048 24 86 4.8 8.0 0.00 0.00 0.00 53 1008.2
20260506011545 25 77 6.4 12.9 0.00 0.00 0.00 48 1008.0
20260506010046 26 95 4.8 8.0 0.00 0.00 0.00 41 1007.5
20260506004551 26 50 3.2 9.7 0.00 0.00 0.00 38 1007.3
20260506003052 27 49 6.4 11.3 0.00 0.00 0.00 34 1007.4
20260506001553 28 6 9.7 16.1 0.00 0.00 0.00 26 1007.2
20260506000050 28 338 8.0 12.9 0.00 0.00 0.00 27 1006.9
20260505234556 30 354 9.7 17.7 0.00 0.00 0.00 26 1006.8
20260505233103 30 325 11.3 16.1 0.00 0.00 0.00 25 1006.8
20260505231555 30 353 11.3 24.1 0.00 0.00 0.00 26 1006.8
20260505230050 30 328 12.9 19.3 0.00 0.00 0.00 27 1006.5
20260505224549 30 292 6.4 12.9 0.00 0.00 0.00 29 1006.6
20260505223055 31 288 8.0 16.1 0.00 0.00 0.00 28 1006.5
20260505221552 31 295 9.7 16.1 0.00 0.00 0.00 28 1006.5
20260505220049 32 285 9.7 14.5 0.00 0.00 0.00 28 1006.2
20260505214554 31 280 11.3 19.3 0.00 0.00 0.00 30 1006.5
20260505213102 31 289 12.9 22.5 0.00 0.00 0.00 30 1006.5
20260505211600 31 277 8.0 17.7 0.00 0.00 0.00 32 1006.7
20260505210054 31 277 9.7 19.3 0.00 0.00 0.00 34 1006.8
20260505204603 31 283 9.7 17.7 0.00 0.00 0.00 30 1006.9
20260505203100 31 285 12.9 22.5 0.00 0.00 0.00 31 1006.9
20260505201602 31 307 14.5 20.9 0.00 0.00 0.00 33 1007.0
20260505200053 31 283 11.3 20.9 0.00 0.00 0.00 32 1007.1
20260505194614 31 300 12.9 22.5 0.00 0.00 0.00 34 1007.5
20260505193052 30 307 11.3 22.5 0.00 0.00 0.00 36 1007.5
20260505191554 30 291 9.7 20.9 0.00 0.00 0.00 38 1007.7
20260505190051 30 259 8.0 16.1 0.00 0.00 0.00 41 1007.8
20260505184549 29 302 8.0 16.1 0.00 0.00 0.00 41 1007.9
20260505183050 28 287 9.7 19.3 0.00 0.00 0.00 44 1008.2
20260505181556 28 304 9.7 20.9 0.00 0.00 0.00 44 1008.5
20260505180053 28 290 9.7 22.5 0.00 0.00 0.00 49 1008.7
20260505174556 27 295 11.3 19.3 0.00 0.00 0.00 52 1008.7
20260505173051 27 290 14.5 20.9 0.00 0.00 0.00 53 1008.6
20260505171555 26 266 11.3 20.9 0.00 0.00 0.00 57 1008.6
20260505170056 26 283 14.5 20.9 0.00 0.00 0.00 60 1008.6
20260505164614 25 285 11.3 20.9 0.00 0.00 0.00 63 1008.7
20260505163053 25 318 11.3 19.3 0.00 0.00 0.00 66 1008.8
20260505161605 24 293 11.3 19.3 0.00 0.00 0.00 69 1008.8
20260505153049 23 274 11.3 16.1 0.00 0.00 0.00 77 1008.7
20260505151550 22 254 11.3 17.7 0.00 0.00 0.00 79 1008.5